"SCLK","SCET","ORBIT_NUMBER","ALTITUDE","LATITUDE_PLANEOGRAPHIC","LATITUDE_PLANETOCENTRIC","LOCAL_TRUE_SOLAR_TIME","WEST_LONGITUDE","X_SUN_DIR_DISTANCE","RHO_PRP_SUN_DISTANCE","SOLAR_ZENITH_ANGLE","ELECTRON_PLASMA_FREQUENCY","FPE_QUALITY","FPP_VERIFICATION","ELECTRON_PLASMA_DENSITY","ELECTRON_CYCLOTRON_PERIOD","FCP_QUALITY","B_MAGNITUDE"
"1/0362174317.24551",2014-10-23T19:58:41.170,13723,1005.00,80.21,80.11,"00:25:38",13.99,-0.410,1.220,108.30,1.91e+02,2,,4.52e+02,,,
"1/0362174324.60137",2014-10-23T19:58:48.713,13723,996.00,80.55,80.45,"02:57:01",13.33,-0.400,1.220,108.11,1.90e+02,2,,4.48e+02,,,
"1/0362174332.30187",2014-10-23T19:58:56.256,13723,987.00,80.89,80.79,"05:39:52",12.62,-0.400,1.220,107.92,1.85e+02,2,,4.24e+02,,,
"1/0362174340.00303",2014-10-23T19:59:03.800,13723,978.00,81.22,81.13,"08:34:10",11.86,-0.390,1.220,107.73,1.86e+02,2,,4.29e+02,,,
"1/0362174347.35889",2014-10-23T19:59:11.343,13723,969.00,81.56,81.47,"11:46:48",11.02,-0.390,1.220,107.54,1.92e+02,2,,4.57e+02,,,
"1/0362174355.05939",2014-10-23T19:59:18.886,13723,960.00,81.90,81.81,"15:15:29",10.11,-0.380,1.220,107.35,1.96e+02,2,,4.76e+02,,,
"1/0362174362.41525",2014-10-23T19:59:26.429,13723,951.00,82.23,82.15,"19:02:29",9.12,-0.380,1.220,107.16,1.99e+02,2,,4.91e+02,3.84e+00,1,9.29e+00
"1/0362174370.11575",2014-10-23T19:59:33.972,13723,942.00,82.56,82.48,"23:12:25",8.03,-0.370,1.220,106.97,1.99e+02,2,,4.91e+02,3.59e+00,1,9.95e+00
"1/0362174377.47227",2014-10-23T19:59:41.516,13723,933.00,82.90,82.82,"03:47:34",6.83,-0.370,1.210,106.77,2.00e+02,2,,4.96e+02,,,
"1/0362174385.17277",2014-10-23T19:59:49.059,13723,924.00,83.22,83.15,"08:52:30",5.50,-0.360,1.210,106.57,2.00e+02,2,,4.96e+02,,,
"1/0362174392.52863",2014-10-23T19:59:56.602,13723,916.00,83.55,83.48,"14:27:14",4.04,-0.360,1.210,106.37,1.96e+02,2,,4.76e+02,3.38e+00,1,1.06e+01
"1/0362174400.22913",2014-10-23T20:00:04.145,13723,907.00,83.87,83.80,"20:40:55",2.41,-0.350,1.210,106.18,2.04e+02,2,,5.16e+02,,,
"1/0362174407.58499",2014-10-23T20:00:11.688,13723,898.00,84.19,84.13,"03:40:27",0.58,-0.350,1.210,105.97,2.00e+02,2,,4.96e+02,3.55e+00,1,1.01e+01
"1/0362174415.28614",2014-10-23T20:00:19.232,13723,890.00,84.51,84.44,"04:22:11",358.54,-0.340,1.210,105.77,1.97e+02,2,,4.81e+02,3.50e+00,1,1.02e+01
"1/0362174422.64200",2014-10-23T20:00:26.775,13723,881.00,84.81,84.75,"13:09:26",356.24,-0.340,1.210,105.57,1.93e+02,2,,4.62e+02,,,
"1/0362174430.34250",2014-10-23T20:00:34.318,13723,873.00,85.11,85.05,"23:03:08",353.65,-0.330,1.210,105.37,1.87e+02,2,,4.34e+02,3.37e+00,1,1.06e+01
"1/0362174438.04300",2014-10-23T20:00:41.861,13723,864.00,85.40,85.34,"10:17:03",350.71,-0.330,1.200,105.16,1.88e+02,2,,4.38e+02,3.44e+00,1,1.04e+01
"1/0362174445.39886",2014-10-23T20:00:49.404,13723,856.00,85.67,85.62,"23:02:39",347.37,-0.320,1.200,104.95,1.87e+02,2,,4.34e+02,3.46e+00,1,1.03e+01
"1/0362174453.10002",2014-10-23T20:00:56.948,13723,848.00,85.93,85.88,"13:33:40",343.57,-0.320,1.200,104.74,1.79e+02,2,,3.97e+02,3.43e+00,1,1.04e+01
"1/0362174460.45588",2014-10-23T20:01:04.491,13723,839.00,86.17,86.12,"05:59:16",339.27,-0.310,1.200,104.53,1.71e+02,2,,3.63e+02,3.41e+00,1,1.05e+01
"1/0362174468.15638",2014-10-23T20:01:12.034,13723,831.00,86.38,86.34,"00:37:49",334.39,-0.310,1.200,104.32,1.70e+02,2,,3.58e+02,3.33e+00,1,1.07e+01
"1/0362174475.51224",2014-10-23T20:01:19.577,13723,823.00,86.57,86.53,"21:29:16",328.93,-0.300,1.200,104.11,1.73e+02,2,,3.71e+02,3.53e+00,1,1.01e+01
"1/0362174483.21274",2014-10-23T20:01:27.120,13723,815.00,86.72,86.68,"20:38:15",322.87,-0.300,1.200,103.90,1.74e+02,2,,3.75e+02,3.60e+00,1,9.92e+00
"1/0362174490.56926",2014-10-23T20:01:34.664,13723,807.00,86.83,86.79,"21:48:41",316.28,-0.290,1.200,103.68,1.71e+02,2,,3.63e+02,3.60e+00,1,9.92e+00
"1/0362174498.26976",2014-10-23T20:01:42.207,13723,799.00,86.90,86.86,"00:30:48",309.29,-0.290,1.190,103.47,1.71e+02,2,,3.63e+02,3.59e+00,1,9.95e+00
"1/0362174505.62562",2014-10-23T20:01:49.750,13723,791.00,86.92,86.88,"04:07:55",302.06,-0.280,1.190,103.25,1.70e+02,2,,3.58e+02,3.56e+00,1,1.00e+01
"1/0362174513.32612",2014-10-23T20:01:57.293,13723,783.00,86.89,86.85,"07:42:44",294.84,-0.280,1.190,103.03,1.77e+02,2,,3.89e+02,3.60e+00,1,9.93e+00
"1/0362174521.02727",2014-10-23T20:02:04.837,13723,775.00,86.81,86.77,"10:24:51",287.85,-0.270,1.190,102.81,1.70e+02,2,,3.58e+02,3.49e+00,1,1.02e+01
"1/0362174528.38313",2014-10-23T20:02:12.380,13723,767.00,86.68,86.64,"11:35:17",281.26,-0.270,1.190,102.59,1.71e+02,2,,3.63e+02,3.69e+00,1,9.68e+00
"1/0362174536.08363",2014-10-23T20:02:19.923,13723,759.00,86.51,86.47,"10:41:58",275.21,-0.260,1.190,102.37,1.72e+02,2,,3.67e+02,3.63e+00,1,9.85e+00
"1/0362174543.43949",2014-10-23T20:02:27.466,13723,752.00,86.31,86.27,"07:33:26",269.75,-0.250,1.190,102.14,1.75e+02,2,,3.80e+02,3.60e+00,1,9.92e+00
"1/0362174551.13999",2014-10-23T20:02:35.009,13723,744.00,86.08,86.03,"02:07:23",264.89,-0.250,1.190,101.92,1.82e+02,2,,4.11e+02,3.49e+00,1,1.02e+01
"1/0362174558.49651",2014-10-23T20:02:42.553,13723,737.00,85.82,85.77,"18:35:17",260.58,-0.240,1.190,101.69,1.87e+02,2,,4.34e+02,3.48e+00,1,1.03e+01
"1/0362174566.19701",2014-10-23T20:02:50.096,13723,729.00,85.54,85.49,"09:04:01",256.79,-0.240,1.180,101.47,1.82e+02,2,,4.11e+02,3.46e+00,1,1.03e+01
"1/0362174573.55287",2014-10-23T20:02:57.639,13723,722.00,85.23,85.18,"21:47:19",253.46,-0.230,1.180,101.24,1.80e+02,2,,4.02e+02,3.37e+00,1,1.06e+01
"1/0362174581.25337",2014-10-23T20:03:05.182,13723,714.00,84.92,84.86,"09:01:14",250.52,-0.230,1.180,101.01,1.80e+02,2,,4.02e+02,3.44e+00,1,1.04e+01
"1/0362174588.60923",2014-10-23T20:03:12.725,13723,707.00,84.59,84.53,"18:54:56",247.93,-0.220,1.180,100.78,1.79e+02,2,,3.97e+02,3.24e+00,1,1.10e+01
"1/0362174596.31038",2014-10-23T20:03:20.269,13723,700.00,84.25,84.18,"03:42:11",245.63,-0.220,1.180,100.55,1.79e+02,2,,3.97e+02,3.28e+00,2,1.09e+01
"1/0362174604.01088",2014-10-23T20:03:27.812,13723,693.00,83.90,83.83,"11:29:50",243.59,-0.210,1.180,100.31,1.77e+02,2,,3.89e+02,3.13e+00,1,1.14e+01
"1/0362174611.36675",2014-10-23T20:03:35.355,13723,686.00,83.54,83.47,"18:27:05",241.77,-0.210,1.180,100.08,1.71e+02,2,,3.63e+02,3.03e+00,1,1.18e+01
"1/0362174619.06725",2014-10-23T20:03:42.898,13723,679.00,83.17,83.10,"00:40:46",240.14,-0.200,1.180,99.84,1.80e+02,2,,4.02e+02,3.05e+00,1,1.17e+01
"1/0362174626.42311",2014-10-23T20:03:50.441,13723,672.00,82.80,82.72,"06:17:47",238.67,-0.200,1.170,99.61,1.72e+02,2,,3.67e+02,3.04e+00,1,1.17e+01
"1/0362174634.12426",2014-10-23T20:03:57.985,13723,665.00,82.42,82.34,"11:20:26",237.35,-0.190,1.170,99.37,1.68e+02,2,,3.50e+02,2.78e+00,1,1.28e+01
"1/0362174641.48012",2014-10-23T20:04:05.528,13723,658.00,82.04,81.95,"15:55:34",236.15,-0.190,1.170,99.13,1.67e+02,2,,3.46e+02,2.71e+00,2,1.32e+01
"1/0362174649.18062",2014-10-23T20:04:13.071,13723,651.00,81.65,81.56,"20:05:30",235.06,-0.180,1.170,98.89,1.70e+02,2,,3.58e+02,2.67e+00,2,1.34e+01
"1/0362174656.53648",2014-10-23T20:04:20.614,13723,644.00,81.26,81.16,"23:52:31",234.07,-0.180,1.170,98.65,1.61e+02,2,,3.21e+02,2.52e+00,1,1.41e+01
"1/0362174664.23698",2014-10-23T20:04:28.157,13723,638.00,80.87,80.76,"03:21:12",233.16,-0.170,1.170,98.40,1.74e+02,2,,3.75e+02,2.55e+00,1,1.40e+01
"1/0362174671.59350",2014-10-23T20:04:35.701,13723,631.00,80.47,80.36,"06:33:50",232.32,-0.170,1.170,98.16,1.73e+02,2,,3.71e+02,2.62e+00,2,1.36e+01
"1/0362174679.29400",2014-10-23T20:04:43.244,13723,625.00,80.06,79.95,"09:28:08",231.56,-0.160,1.170,97.92,1.64e+02,2,,3.34e+02,2.42e+00,2,1.47e+01
"1/0362174686.64986",2014-10-23T20:04:50.787,13723,618.00,79.66,79.54,"12:10:59",230.85,-0.160,1.170,97.67,1.76e+02,2,,3.84e+02,2.47e+00,2,1.45e+01
"1/0362174694.35036",2014-10-23T20:04:58.330,13723,612.00,79.25,79.13,"14:42:22",230.19,-0.150,1.160,97.42,1.73e+02,2,,3.71e+02,2.34e+00,2,1.53e+01
"1/0362174702.05086",2014-10-23T20:05:05.873,13723,606.00,78.84,78.71,"17:02:17",229.58,-0.140,1.160,97.18,1.73e+02,2,,3.71e+02,2.35e+00,1,1.52e+01
"1/0362174709.40737",2014-10-23T20:05:13.417,13723,599.00,78.43,78.30,"19:10:45",229.02,-0.140,1.160,96.93,1.76e+02,2,,3.84e+02,2.47e+00,1,1.45e+01
"1/0362174717.10787",2014-10-23T20:05:20.960,13723,593.00,78.01,77.88,"21:12:20",228.49,-0.130,1.160,96.68,1.76e+02,2,,3.84e+02,2.48e+00,2,1.44e+01
"1/0362174724.46373",2014-10-23T20:05:28.503,13723,587.00,77.59,77.45,"23:04:46",228.00,-0.130,1.160,96.43,1.70e+02,2,,3.58e+02,2.41e+00,2,1.48e+01
"1/0362174732.16424",2014-10-23T20:05:36.046,13723,581.00,77.17,77.03,"00:48:01",227.55,-0.120,1.160,96.17,1.75e+02,2,,3.80e+02,2.42e+00,2,1.48e+01
"1/0362174739.52010",2014-10-23T20:05:43.589,13723,575.00,76.75,76.60,"02:26:41",227.12,-0.120,1.160,95.92,2.02e+02,2,,5.06e+02,2.47e+00,1,1.45e+01
"1/0362174747.22125",2014-10-23T20:05:51.133,13723,569.00,76.32,76.17,"04:00:46",226.71,-0.110,1.160,95.67,2.04e+02,2,,5.16e+02,2.45e+00,2,1.46e+01
"1/0362174754.57711",2014-10-23T20:05:58.676,13723,564.00,75.90,75.74,"05:25:42",226.34,-0.110,1.150,95.41,1.91e+02,2,,4.52e+02,2.36e+00,1,1.51e+01
"1/0362174762.27761",2014-10-23T20:06:06.219,13723,558.00,75.47,75.31,"06:48:19",225.98,-0.100,1.150,95.16,2.06e+02,2,,5.26e+02,2.48e+00,2,1.44e+01
"1/0362174769.63347",2014-10-23T20:06:13.762,13723,552.00,75.04,74.87,"08:04:05",225.65,-0.100,1.150,94.90,1.81e+02,2,,4.06e+02,2.35e+00,2,1.52e+01
"1/0362174777.33397",2014-10-23T20:06:21.305,13723,547.00,74.61,74.43,"09:17:32",225.33,-0.090,1.150,94.64,1.98e+02,2,,4.86e+02,2.41e+00,2,1.48e+01
"1/0362174785.03513",2014-10-23T20:06:28.849,13723,541.00,74.17,74.00,"10:26:25",225.03,-0.090,1.150,94.38,2.11e+02,2,,5.52e+02,2.33e+00,1,1.53e+01
"1/0362174792.39099",2014-10-23T20:06:36.392,13723,536.00,73.74,73.56,"11:30:42",224.75,-0.080,1.150,94.12,2.15e+02,2,,5.73e+02,,,
"1/0362174800.09149",2014-10-23T20:06:43.935,13723,531.00,73.30,73.11,"12:32:43",224.48,-0.070,1.150,93.86,2.21e+02,2,,6.06e+02,2.40e+00,2,1.49e+01
"1/0362174807.44735",2014-10-23T20:06:51.478,13723,526.00,72.86,72.67,"13:30:08",224.23,-0.070,1.150,93.60,2.38e+02,2,,7.02e+02,2.36e+00,1,1.52e+01
"1/0362174815.14785",2014-10-23T20:06:59.021,13723,520.00,72.42,72.23,"14:25:15",223.99,-0.060,1.150,93.34,2.38e+02,2,,7.02e+02,2.20e+00,2,1.62e+01
"1/0362174822.50436",2014-10-23T20:07:06.565,13723,515.00,71.98,71.78,"15:18:05",223.76,-0.060,1.140,93.08,2.58e+02,2,,8.25e+02,2.22e+00,1,1.61e+01
"1/0362174830.20486",2014-10-23T20:07:14.108,13723,510.00,71.53,71.33,"16:06:20",223.55,-0.050,1.140,92.81,2.73e+02,2,,9.24e+02,2.23e+00,2,1.60e+01
"1/0362174837.56072",2014-10-23T20:07:21.651,13723,505.00,71.09,70.88,"16:54:35",223.34,-0.050,1.140,92.55,2.95e+02,2,,1.08e+03,2.54e+00,1,1.41e+01
"1/0362174845.26122",2014-10-23T20:07:29.194,13723,501.00,70.64,70.43,"17:38:15",223.15,-0.040,1.140,92.28,2.70e+02,2,,9.04e+02,2.44e+00,1,1.47e+01
"1/0362174852.61708",2014-10-23T20:07:36.737,13723,496.00,70.20,69.98,"18:21:55",222.96,-0.040,1.140,92.02,2.86e+02,2,,1.01e+03,2.32e+00,1,1.54e+01
"1/0362174860.31824",2014-10-23T20:07:44.281,13723,491.00,69.75,69.53,"19:03:18",222.78,-0.030,1.140,91.75,2.70e+02,2,,9.04e+02,2.18e+00,1,1.64e+01
"1/0362174868.01874",2014-10-23T20:07:51.824,13723,487.00,69.30,69.07,"19:42:23",222.61,-0.030,1.140,91.48,2.84e+02,2,,1.00e+03,2.12e+00,2,1.68e+01
"1/0362174875.37460",2014-10-23T20:07:59.367,13723,482.00,68.84,68.62,"20:19:10",222.45,-0.020,1.140,91.21,3.08e+02,2,,1.18e+03,2.31e+00,2,1.55e+01
"1/0362174883.07510",2014-10-23T20:08:06.910,13723,478.00,68.39,68.16,"20:53:40",222.30,-0.020,1.130,90.94,2.91e+02,2,,1.05e+03,2.19e+00,1,1.63e+01
"1/0362174890.43096",2014-10-23T20:08:14.453,13723,474.00,67.94,67.70,"21:28:10",222.15,-0.010,1.130,90.67,2.82e+02,2,,9.86e+02,2.16e+00,1,1.65e+01
"1/0362174898.13212",2014-10-23T20:08:21.997,13723,469.00,67.48,67.24,"22:00:23",222.01,-0.000,1.130,90.40,2.60e+02,2,,8.38e+02,,,
"1/0362174905.48798",2014-10-23T20:08:29.540,13723,465.00,67.02,66.78,"22:32:35",221.87,0.000,1.130,90.13,2.57e+02,2,,8.19e+02,2.07e+00,1,1.72e+01
"1/0362174913.18848",2014-10-23T20:08:37.083,13723,461.00,66.57,66.32,"23:02:30",221.74,0.010,1.130,89.86,2.41e+02,2,,7.20e+02,2.13e+00,1,1.68e+01
"1/0362174920.54434",2014-10-23T20:08:44.626,13723,457.00,66.11,65.85,"23:30:08",221.62,0.010,1.130,89.59,2.66e+02,2,,8.77e+02,2.08e+00,2,1.72e+01
"1/0362174928.24484",2014-10-23T20:08:52.169,13723,453.00,65.65,65.39,"23:57:45",221.50,0.020,1.130,89.32,2.99e+02,2,,1.11e+03,2.18e+00,1,1.64e+01
"1/0362174935.60135",2014-10-23T20:08:59.713,13723,450.00,65.19,64.93,"00:23:05",221.39,0.020,1.130,89.04,2.90e+02,2,,1.04e+03,2.06e+00,2,1.73e+01
"1/0362174943.30185",2014-10-23T20:09:07.256,13723,446.00,64.72,64.46,"00:48:25",221.28,0.030,1.130,88.77,2.96e+02,2,,1.09e+03,2.08e+00,1,1.72e+01
"1/0362174951.00235",2014-10-23T20:09:14.799,13723,442.00,64.26,63.99,"01:13:45",221.17,0.030,1.120,88.50,2.84e+02,2,,1.00e+03,1.99e+00,2,1.80e+01
"1/0362174958.35821",2014-10-23T20:09:22.342,13723,439.00,63.80,63.52,"01:36:48",221.07,0.040,1.120,88.22,2.82e+02,2,,9.86e+02,2.00e+00,1,1.78e+01
"1/0362174966.05871",2014-10-23T20:09:29.885,13723,435.00,63.33,63.06,"01:57:32",220.98,0.040,1.120,87.95,2.89e+02,2,,1.04e+03,2.13e+00,1,1.67e+01
"1/0362174973.41523",2014-10-23T20:09:37.429,13723,432.00,62.87,62.59,"02:20:35",220.88,0.050,1.120,87.67,2.82e+02,2,,9.86e+02,2.04e+00,1,1.75e+01
"1/0362174981.11573",2014-10-23T20:09:44.972,13723,429.00,62.40,62.11,"02:41:20",220.79,0.050,1.120,87.39,3.09e+02,2,,1.18e+03,,,
"1/0362174988.47159",2014-10-23T20:09:52.515,13723,426.00,61.93,61.64,"02:59:47",220.71,0.060,1.120,87.12,3.55e+02,2,,1.56e+03,,,
"1/0362174996.17209",2014-10-23T20:10:00.058,13723,423.00,61.46,61.17,"03:18:15",220.63,0.070,1.120,86.84,3.85e+02,2,,1.84e+03,,,
"1/0362175003.52795",2014-10-23T20:10:07.601,13723,420.00,60.99,60.70,"03:36:42",220.55,0.070,1.120,86.56,3.69e+02,2,,1.69e+03,,,
"1/0362175011.22911",2014-10-23T20:10:15.145,13723,417.00,60.52,60.22,"03:55:10",220.47,0.080,1.120,86.29,3.85e+02,2,,1.84e+03,,,
"1/0362175018.58497",2014-10-23T20:10:22.688,13723,414.00,60.05,59.75,"04:11:19",220.40,0.080,1.110,86.01,3.67e+02,2,,1.67e+03,,,
"1/0362175026.28547",2014-10-23T20:10:30.231,13723,411.00,59.58,59.27,"04:27:29",220.33,0.090,1.110,85.73,3.51e+02,2,,1.53e+03,,,
"1/0362175033.64133",2014-10-23T20:10:37.774,13723,409.00,59.10,58.80,"04:43:39",220.26,0.090,1.110,85.45,3.39e+02,2,,1.43e+03,,,
"1/0362175041.34248",2014-10-23T20:10:45.318,13723,406.00,58.63,58.32,"04:57:32",220.20,0.100,1.110,85.17,3.31e+02,2,,1.36e+03,,,
"1/0362175049.04298",2014-10-23T20:10:52.861,13723,404.00,58.15,57.84,"05:13:42",220.13,0.100,1.110,84.90,3.39e+02,2,,1.43e+03,2.03e+00,2,1.76e+01
"1/0362175056.39884",2014-10-23T20:11:00.404,13723,402.00,57.68,57.36,"05:27:34",220.07,0.110,1.110,84.62,3.37e+02,2,,1.41e+03,,,
"1/0362175064.09934",2014-10-23T20:11:07.947,13723,399.00,57.20,56.89,"05:39:09",220.02,0.110,1.110,84.34,3.53e+02,2,,1.55e+03,,,
"1/0362175071.45520",2014-10-23T20:11:15.490,13723,397.00,56.73,56.41,"05:53:01",219.96,0.120,1.110,84.06,3.57e+02,2,,1.58e+03,,,
"1/0362175079.15636",2014-10-23T20:11:23.034,13723,395.00,56.25,55.93,"06:04:36",219.91,0.120,1.100,83.78,3.60e+02,2,,1.61e+03,,,
"1/0362175086.51222",2014-10-23T20:11:30.577,13723,393.00,55.77,55.45,"06:18:29",219.85,0.130,1.100,83.50,3.68e+02,2,,1.68e+03,2.02e+00,1,1.77e+01
"1/0362175094.21272",2014-10-23T20:11:38.120,13723,391.00,55.29,54.97,"06:30:03",219.80,0.140,1.100,83.22,4.02e+02,2,,2.00e+03,,,
"1/0362175101.56858",2014-10-23T20:11:45.663,13723,390.00,54.81,54.48,"06:39:21",219.76,0.140,1.100,82.94,4.10e+02,2,,2.08e+03,,,
"1/0362175109.26908",2014-10-23T20:11:53.206,13723,388.00,54.33,54.00,"06:50:56",219.71,0.150,1.100,82.66,4.37e+02,2,,2.37e+03,2.31e+00,1,1.55e+01
"1/0362175116.62560",2014-10-23T20:12:00.750,13723,387.00,53.85,53.52,"07:02:31",219.66,0.150,1.100,82.38,4.17e+02,2,,2.16e+03,2.01e+00,1,1.78e+01
"1/0362175124.32610",2014-10-23T20:12:08.293,13723,385.00,53.37,53.04,"07:11:48",219.62,0.160,1.100,82.11,4.16e+02,2,,2.15e+03,1.91e+00,2,1.87e+01
"1/0362175132.02660",2014-10-23T20:12:15.836,13723,384.00,52.89,52.55,"07:21:05",219.58,0.160,1.100,81.83,4.04e+02,2,,2.02e+03,1.83e+00,1,1.95e+01
"1/0362175139.38246",2014-10-23T20:12:23.379,13723,382.00,52.41,52.07,"07:30:23",219.54,0.170,1.100,81.55,3.92e+02,2,,1.91e+03,1.86e+00,2,1.91e+01
"1/0362175147.08296",2014-10-23T20:12:30.922,13723,381.00,51.93,51.59,"07:39:40",219.50,0.170,1.090,81.27,3.94e+02,2,,1.93e+03,1.94e+00,2,1.84e+01
"1/0362175154.43947",2014-10-23T20:12:38.466,13723,380.00,51.44,51.10,"07:46:40",219.47,0.180,1.090,80.99,3.99e+02,2,,1.97e+03,2.01e+00,2,1.78e+01
"1/0362175162.13997",2014-10-23T20:12:46.009,13723,379.00,50.96,50.62,"07:55:57",219.43,0.180,1.090,80.72,3.69e+02,2,,1.69e+03,2.00e+00,2,1.78e+01
"1/0362175169.49583",2014-10-23T20:12:53.552,13723,378.00,50.48,50.14,"08:02:57",219.40,0.190,1.090,80.44,3.90e+02,2,,1.89e+03,1.92e+00,1,1.86e+01
"1/0362175177.19633",2014-10-23T20:13:01.095,13723,378.00,49.99,49.65,"08:12:15",219.36,0.190,1.090,80.16,3.76e+02,2,,1.75e+03,2.07e+00,2,1.72e+01
"1/0362175184.55219",2014-10-23T20:13:08.638,13723,377.00,49.51,49.17,"08:19:14",219.33,0.200,1.090,79.88,3.85e+02,2,,1.84e+03,1.92e+00,2,1.86e+01
"1/0362175192.25335",2014-10-23T20:13:16.182,13723,376.00,49.03,48.68,"08:26:14",219.30,0.200,1.090,79.61,3.84e+02,2,,1.83e+03,1.94e+00,2,1.84e+01
"1/0362175199.60921",2014-10-23T20:13:23.725,13723,376.00,48.54,48.20,"08:33:14",219.27,0.210,1.090,79.33,3.93e+02,2,,1.92e+03,1.95e+00,1,1.83e+01
"1/0362175207.30971",2014-10-23T20:13:31.268,13723,376.00,48.06,47.71,"08:40:14",219.24,0.210,1.090,79.06,4.22e+02,2,,2.21e+03,,,
"1/0362175215.01021",2014-10-23T20:13:38.811,13723,375.00,47.57,47.23,"08:44:56",219.22,0.220,1.080,78.78,4.70e+02,2,,2.74e+03,,,
"1/0362175222.36607",2014-10-23T20:13:46.354,13723,375.00,47.09,46.74,"08:51:56",219.19,0.220,1.080,78.51,4.68e+02,2,,2.72e+03,,,
"1/0362175230.06723",2014-10-23T20:13:53.898,13723,375.00,46.60,46.26,"08:58:56",219.16,0.230,1.080,78.23,4.65e+02,2,,2.68e+03,,,
"1/0362175237.42309",2014-10-23T20:14:01.441,13723,375.00,46.12,45.77,"09:03:39",219.14,0.240,1.080,77.96,4.28e+02,2,,2.27e+03,1.87e+00,2,1.91e+01
"1/0362175245.12359",2014-10-23T20:14:08.984,13723,375.00,45.63,45.29,"09:08:21",219.12,0.240,1.080,77.68,4.08e+02,2,,2.06e+03,1.77e+00,2,2.02e+01
"1/0362175252.47945",2014-10-23T20:14:16.527,13723,375.00,45.15,44.80,"09:15:21",219.09,0.250,1.080,77.41,4.25e+02,2,,2.24e+03,1.76e+00,2,2.03e+01
"1/0362175260.17995",2014-10-23T20:14:24.070,13723,376.00,44.66,44.32,"09:20:03",219.07,0.250,1.080,77.14,4.60e+02,2,,2.62e+03,1.82e+00,1,1.96e+01
"1/0362175267.53646",2014-10-23T20:14:31.614,13723,376.00,44.18,43.83,"09:24:45",219.05,0.260,1.080,76.87,5.19e+02,2,,3.34e+03,1.92e+00,1,1.86e+01
"1/0362175275.23696",2014-10-23T20:14:39.157,13723,377.00,43.69,43.35,"09:29:28",219.03,0.260,1.080,76.60,5.23e+02,2,,3.39e+03,,,
"1/0362175282.59282",2014-10-23T20:14:46.700,13723,377.00,43.21,42.86,"09:34:10",219.01,0.270,1.080,76.33,5.27e+02,2,,3.44e+03,2.04e+00,1,1.75e+01
"1/0362175290.29332",2014-10-23T20:14:54.243,13723,378.00,42.72,42.38,"09:36:35",219.00,0.270,1.070,76.06,5.40e+02,2,,3.62e+03,,,
"1/0362175297.64918",2014-10-23T20:15:01.786,13723,379.00,42.24,41.89,"09:41:17",218.98,0.280,1.070,75.79,5.52e+02,2,,3.78e+03,,,
"1/0362175305.35034",2014-10-23T20:15:09.330,13723,380.00,41.76,41.41,"09:46:00",218.96,0.280,1.070,75.52,5.27e+02,2,,3.44e+03,,,
"1/0362175313.05084",2014-10-23T20:15:16.873,13723,381.00,41.27,40.93,"09:48:25",218.95,0.290,1.070,75.26,5.24e+02,2,,3.40e+03,2.20e+00,1,1.62e+01
"1/0362175320.40670",2014-10-23T20:15:24.416,13723,382.00,40.79,40.44,"09:53:07",218.93,0.290,1.070,74.99,5.27e+02,2,,3.44e+03,,,
"1/0362175328.10720",2014-10-23T20:15:31.959,13723,383.00,40.30,39.96,"09:55:32",218.92,0.300,1.070,74.73,4.86e+02,2,,2.93e+03,,,
"1/0362175335.46306",2014-10-23T20:15:39.502,13723,384.00,39.82,39.48,"10:00:14",218.90,0.300,1.070,74.46,4.75e+02,2,,2.80e+03,,,
"1/0362175343.16422",2014-10-23T20:15:47.046,13723,386.00,39.34,38.99,"10:02:39",218.89,0.310,1.070,74.20,4.57e+02,2,,2.59e+03,1.81e+00,1,1.97e+01
"1/0362175350.52008",2014-10-23T20:15:54.589,13723,387.00,38.85,38.51,"10:05:04",218.88,0.310,1.070,73.94,4.20e+02,2,,2.19e+03,1.62e+00,1,2.21e+01
"1/0362175358.22058",2014-10-23T20:16:02.132,13723,389.00,38.37,38.03,"10:07:29",218.87,0.320,1.070,73.68,4.11e+02,2,,2.09e+03,1.53e+00,2,2.33e+01
"1/0362175365.57644",2014-10-23T20:16:09.675,13723,391.00,37.89,37.55,"10:09:54",218.86,0.320,1.070,73.42,4.03e+02,2,,2.01e+03,1.60e+00,2,2.24e+01
"1/0362175373.27694",2014-10-23T20:16:17.218,13723,393.00,37.40,37.07,"10:14:36",218.84,0.330,1.060,73.16,4.06e+02,2,,2.04e+03,1.61e+00,2,2.21e+01
"1/0362175380.63345",2014-10-23T20:16:24.762,13723,394.00,36.92,36.59,"10:17:01",218.83,0.330,1.060,72.90,4.09e+02,2,,2.07e+03,1.68e+00,2,2.12e+01
"1/0362175388.33395",2014-10-23T20:16:32.305,13723,396.00,36.44,36.11,"10:17:08",218.83,0.340,1.060,72.64,3.45e+02,2,,1.48e+03,1.61e+00,1,2.22e+01
"1/0362175396.03445",2014-10-23T20:16:39.848,13723,399.00,35.96,35.63,"10:19:33",218.82,0.340,1.060,72.39,3.50e+02,2,,1.52e+03,1.54e+00,2,2.32e+01
"1/0362175403.39031",2014-10-23T20:16:47.391,13723,401.00,35.48,35.15,"10:21:58",218.81,0.350,1.060,72.13,3.65e+02,2,,1.65e+03,1.62e+00,2,2.21e+01
"1/0362175411.09081",2014-10-23T20:16:54.934,13723,403.00,35.00,34.67,"10:24:23",218.80,0.350,1.060,71.88,3.55e+02,2,,1.56e+03,1.61e+00,2,2.22e+01
"1/0362175418.44733",2014-10-23T20:17:02.478,13723,405.00,34.52,34.20,"10:26:48",218.79,0.360,1.060,71.63,3.82e+02,2,,1.81e+03,1.49e+00,2,2.41e+01
"1/0362175426.14783",2014-10-23T20:17:10.021,13723,408.00,34.04,33.72,"10:26:55",218.79,0.360,1.060,71.38,3.89e+02,2,,1.88e+03,1.47e+00,2,2.42e+01
"1/0362175433.50369",2014-10-23T20:17:17.564,13723,410.00,33.56,33.24,"10:29:20",218.78,0.370,1.060,71.13,3.84e+02,2,,1.83e+03,,,
"1/0362175441.20419",2014-10-23T20:17:25.107,13723,413.00,33.09,32.77,"10:31:45",218.77,0.370,1.060,70.88,3.89e+02,2,,1.88e+03,1.49e+00,2,2.41e+01
"1/0362175448.56005",2014-10-23T20:17:32.650,13723,416.00,32.61,32.30,"10:31:52",218.77,0.370,1.060,70.63,3.83e+02,2,,1.82e+03,1.54e+00,2,2.32e+01
"1/0362175456.26121",2014-10-23T20:17:40.194,13723,419.00,32.13,31.82,"10:34:17",218.76,0.380,1.060,70.39,3.68e+02,2,,1.68e+03,1.53e+00,2,2.33e+01
"1/0362175463.61707",2014-10-23T20:17:47.737,13723,422.00,31.66,31.35,"10:34:24",218.76,0.380,1.050,70.15,3.66e+02,2,,1.66e+03,1.54e+00,2,2.32e+01
"1/0362175471.31757",2014-10-23T20:17:55.280,13723,425.00,31.18,30.88,"10:36:49",218.75,0.390,1.050,69.90,3.76e+02,2,,1.75e+03,1.50e+00,2,2.38e+01
"1/0362175479.01807",2014-10-23T20:18:02.823,13723,428.00,30.71,30.40,"10:36:56",218.75,0.390,1.050,69.66,3.73e+02,2,,1.73e+03,1.50e+00,1,2.38e+01
"1/0362175486.37393",2014-10-23T20:18:10.366,13723,431.00,30.23,29.93,"10:39:21",218.74,0.400,1.050,69.42,3.72e+02,2,,1.72e+03,1.49e+00,2,2.41e+01
"1/0362175494.07508",2014-10-23T20:18:17.910,13723,434.00,29.76,29.46,"10:39:28",218.74,0.400,1.050,69.18,3.72e+02,2,,1.72e+03,1.39e+00,1,2.56e+01
"1/0362175501.43094",2014-10-23T20:18:25.453,13723,438.00,29.29,29.00,"10:39:36",218.74,0.410,1.050,68.95,3.70e+02,2,,1.70e+03,1.30e+00,2,2.74e+01
"1/0362175509.13144",2014-10-23T20:18:32.996,13723,441.00,28.82,28.53,"10:39:43",218.74,0.410,1.050,68.71,3.50e+02,2,,1.52e+03,1.33e+00,2,2.69e+01
"1/0362175516.48730",2014-10-23T20:18:40.539,13723,445.00,28.35,28.06,"10:42:08",218.73,0.420,1.050,68.48,3.29e+02,2,,1.34e+03,1.32e+00,3,2.70e+01
"1/0362175524.18780",2014-10-23T20:18:48.082,13723,449.00,27.88,27.59,"10:42:15",218.73,0.420,1.050,68.25,3.25e+02,2,,1.31e+03,1.23e+00,3,2.90e+01
"1/0362175531.54432",2014-10-23T20:18:55.626,13723,452.00,27.41,27.13,"10:42:23",218.73,0.430,1.050,68.02,3.24e+02,2,,1.30e+03,1.26e+00,3,2.84e+01
"1/0362175539.24482",2014-10-23T20:19:03.169,13723,456.00,26.94,26.66,"10:42:30",218.73,0.430,1.050,67.79,3.09e+02,2,,1.18e+03,1.25e+00,3,2.85e+01